Regional Weather Roundup
Issued by NWS Raleigh/Durham, NC

Home | Current Version | Previous Version | Text Only | Print | Product List | Glossary On
Versions: 1 2 3 4 5 6 7 8 9 10 11 12 13 14 15 16 17 18 19 20 21 22 23 24 25 26 27 28 29 30 31 32 33 34 35 36 37 38 39 40 41 42 43 44 45 46 47 48 49 50
000
ASUS42 KRAH 271010
RWRRAH
NORTH CAROLINA WEATHER ROUNDUP
NATIONAL WEATHER SERVICE RALEIGH NC
600 AM EDT FRI MAY 27 2016

NOTE: "FAIR" INDICATES FEW OR NO CLOUDS BELOW 12,000 FEET WITH NO
SIGNIFICANT WEATHER AND/OR OBSTRUCTIONS TO VISIBILITY.

NCZ001-053-055-056-065-067-271100-
WESTERN NORTH CAROLINA

CITY           SKY/WX    TMP DP  RH WIND       PRES   REMARKS
ASHEVILLE      FOG       59  57  93 CALM      30.18R VSB 3/4
JEFFERSON      PTCLDY    60  57  88 CALM      30.20S
MORGANTON      CLEAR     58  58 100 CALM      30.18S FOG
HICKORY        CLEAR     65  64  97 CALM      30.13R
RUTHERFORDTON  PTCLDY    62  62 100 CALM      30.14S FOG
MOUNT AIRY     CLEAR     67  65  93 CALM      30.16R FOG
BOONE          CLEAR     56  56 100 CALM      30.22R FOG
$$

NCZ021-022-025-041-071-084-088-271100-
CENTRAL NORTH CAROLINA

CITY           SKY/WX    TMP DP  RH WIND       PRES   REMARKS
CHARLOTTE      PTCLDY    66  59  78 S5        30.13S
GREENSBORO     PTCLDY    67  60  78 S6        30.12S
WINSTON-SALEM  CLEAR     68  61  78 S3        30.14R
RALEIGH-DURHAM MOCLDY    70  61  73 S6        30.14S
FORT BRAGG     CLOUDY    71  63  77 S1        30.13S
FAYETTEVILLE   CLOUDY    68  64  87 CALM      30.13S
BURLINGTON     CLEAR     65  58  78 SE3       30.13R
LAURINBURG     MOCLDY    65  62  90 CALM      30.14S
$$

NCZ011-015-027-028-043-044-047-080-103-271100-
NORTHEASTERN NORTH CAROLINA

CITY           SKY/WX    TMP DP  RH WIND       PRES   REMARKS
ROCKY MT-WILSO MOCLDY    67  64  90 S6        30.15S
GREENVILLE     PTCLDY    64  64 100 CALM      30.17R
WASHINGTON     CLEAR     63  62  96 CALM      30.16S
ELIZABETH CITY MOCLDY    66  63  90 SW6       30.16F
MANTEO         NOT AVBL
CAPE HATTERAS  CLEAR     69  62  78 S3        30.17S
$$

NCZ078-087-090-091-093-098-101-271100-
SOUTHEASTERN NORTH CAROLINA

CITY           SKY/WX    TMP DP  RH WIND       PRES   REMARKS
LUMBERTON      CLEAR     66  64  93 CALM      30.13S
GOLDSBORO      CLEAR     66  66 100 CALM      30.14R
KINSTON        CLEAR     64  63  95 CALM      30.17S
KENANSVILLE    CLEAR     60  59  97 CALM      30.16S
NEW BERN       CLEAR     60  58  92 CALM      30.17S
CHERRY POINT   PTCLDY    60  58  92 CALM      30.17R
BEAUFORT       CLEAR     62  61  96 CALM      30.16R
JACKSONVILLE   CLEAR     62  60  93 CALM      30.16R
WILMINGTON     CLEAR     64  62  93 CALM      30.15S
$$




USA.gov is the U.S. government's official web portal to all federal, state and local government web resources and services.